Time,TemperatureF,DewpointF,PressureIn,WindDirection,WindDirectionDegrees,WindSpeedMPH,WindSpeedGustMPH,Humidity,HourlyPrecipIn,Conditions,Clouds,dailyrainin,SoftwareType,DateUTC
2013-08-15 00:03:00,94.3,84.8,29.50,SE,135,3.8,5.1,74,0.00,,,0.00,WUHU216HW,2013-08-14 21:03:00,
2013-08-15 00:08:00,94.3,84.3,29.50,SE,135,1.1,5.1,73,0.00,,,0.00,WUHU216HW,2013-08-14 21:08:00,
2013-08-15 00:13:00,94.3,84.8,29.50,SE,135,2.2,4.0,74,0.00,,,0.00,WUHU216HW,2013-08-14 21:13:00,
2013-08-15 00:18:00,94.1,84.6,29.50,SE,135,3.8,4.9,74,0.00,,,0.00,WUHU216HW,2013-08-14 21:18:00,
2013-08-15 00:23:00,94.0,84.4,29.50,SE,135,4.9,5.1,74,0.00,,,0.00,WUHU216HW,2013-08-14 21:23:00,
2013-08-15 00:28:00,94.1,85.1,29.51,SSE,158,5.1,5.8,75,0.00,,,0.00,WUHU216HW,2013-08-14 21:28:00,
2013-08-15 00:33:00,94.1,85.1,29.51,SE,135,3.6,5.8,75,0.00,,,0.00,WUHU216HW,2013-08-14 21:33:00,
2013-08-15 00:39:00,94.1,85.1,29.50,SE,135,3.8,6.3,75,0.00,,,0.00,WUHU216HW,2013-08-14 21:39:00,
2013-08-15 00:44:00,94.0,84.9,29.50,SE,135,5.4,6.3,75,0.00,,,0.00,WUHU216HW,2013-08-14 21:44:00,
2013-08-15 00:49:00,94.0,84.9,29.50,SSE,158,2.2,6.3,75,0.00,,,0.00,WUHU216HW,2013-08-14 21:49:00,
2013-08-15 00:54:00,94.0,84.4,29.50,SSW,203,2.7,6.3,74,0.00,,,0.00,WUHU216HW,2013-08-14 21:54:00,
2013-08-15 00:59:00,94.0,84.4,29.50,SSE,158,2.9,6.3,74,0.00,,,0.00,WUHU216HW,2013-08-14 21:59:00,
2013-08-15 01:04:00,94.0,84.4,29.49,SSE,158,4.7,6.3,74,0.00,,,0.00,WUHU216HW,2013-08-14 22:04:00,
2013-08-15 01:09:00,93.8,84.7,29.49,SSE,158,3.8,5.6,75,0.00,,,0.00,WUHU216HW,2013-08-14 22:09:00,
2013-08-15 01:14:00,93.8,84.7,29.49,SSW,203,5.4,6.3,75,0.00,,,0.00,WUHU216HW,2013-08-14 22:14:00,
2013-08-15 01:19:00,93.6,84.5,29.49,SSE,158,2.5,6.3,75,0.00,,,0.00,WUHU216HW,2013-08-14 22:19:00,
2013-08-15 01:24:00,93.6,84.9,29.49,SSE,158,4.3,6.3,76,0.00,,,0.00,WUHU216HW,2013-08-14 22:24:00,
2013-08-15 01:29:00,93.4,84.8,29.49,South,180,3.4,6.0,76,0.00,,,0.00,WUHU216HW,2013-08-14 22:29:00,
2013-08-15 01:35:00,93.4,85.1,29.50,South,180,4.0,6.3,77,0.00,,,0.00,WUHU216HW,2013-08-14 22:35:00,
2013-08-15 01:40:00,93.4,84.8,29.49,South,180,2.0,6.3,76,0.00,,,0.00,WUHU216HW,2013-08-14 22:40:00,
2013-08-15 01:45:00,93.4,84.8,29.50,South,180,2.5,7.2,76,0.00,,,0.00,WUHU216HW,2013-08-14 22:45:00,
2013-08-15 01:50:00,93.4,84.3,29.50,SE,135,1.1,7.2,75,0.00,,,0.00,WUHU216HW,2013-08-14 22:50:00,
2013-08-15 01:55:00,93.2,84.2,29.50,South,180,5.1,5.1,75,0.00,,,0.00,WUHU216HW,2013-08-14 22:55:00,
2013-08-15 02:00:00,93.2,84.2,29.50,South,180,5.4,6.0,75,0.00,,,0.00,WUHU216HW,2013-08-14 23:00:00,
2013-08-15 02:05:00,93.2,83.7,29.50,SE,135,4.3,6.0,74,0.00,,,0.00,WUHU216HW,2013-08-14 23:05:00,
2013-08-15 02:10:00,93.2,83.7,29.49,SSE,158,6.9,6.9,74,0.00,,,0.00,WUHU216HW,2013-08-14 23:10:00,
2013-08-15 02:16:00,93.2,83.7,29.49,SSE,158,2.0,6.9,74,0.00,,,0.00,WUHU216HW,2013-08-14 23:16:00,
2013-08-15 02:21:00,93.2,83.7,29.50,SSE,158,4.7,4.7,74,0.00,,,0.00,WUHU216HW,2013-08-14 23:21:00,
2013-08-15 02:26:00,93.1,83.5,29.49,SSE,158,2.5,5.6,74,0.00,,,0.00,WUHU216HW,2013-08-14 23:26:00,
2013-08-15 02:31:00,93.1,83.5,29.49,South,180,2.7,6.5,74,0.00,,,0.00,WUHU216HW,2013-08-14 23:31:00,
2013-08-15 02:36:00,93.1,83.5,29.49,SSE,158,5.1,6.5,74,0.00,,,0.00,WUHU216HW,2013-08-14 23:36:00,
2013-08-15 02:41:00,93.1,83.5,29.49,SSE,158,6.0,7.2,74,0.00,,,0.00,WUHU216HW,2013-08-14 23:41:00,
2013-08-15 02:46:00,93.1,83.5,29.49,SSE,158,5.4,7.2,74,0.00,,,0.00,WUHU216HW,2013-08-14 23:46:00,
2013-08-15 02:51:00,92.9,83.0,29.49,SSW,203,4.7,8.1,73,0.00,,,0.00,WUHU216HW,2013-08-14 23:51:00,
2013-08-15 02:56:00,92.9,83.0,29.49,South,180,5.1,8.1,73,0.00,,,0.00,WUHU216HW,2013-08-14 23:56:00,
2013-08-15 03:01:00,92.9,83.0,29.49,SE,135,4.3,8.3,73,0.00,,,0.00,WUHU216HW,2013-08-15 00:01:00,
2013-08-15 03:06:00,92.9,82.5,29.49,South,180,5.1,8.3,72,0.00,,,0.00,WUHU216HW,2013-08-15 00:06:00,
2013-08-15 03:11:00,92.9,82.5,29.49,SSE,158,6.3,7.8,72,0.00,,,0.00,WUHU216HW,2013-08-15 00:11:00,
2013-08-15 03:16:00,92.9,81.7,29.49,SE,135,2.9,8.5,70,0.00,,,0.00,WUHU216HW,2013-08-15 00:16:00,
2013-08-15 03:21:00,92.9,81.7,29.49,SSE,158,5.4,8.5,70,0.00,,,0.00,WUHU216HW,2013-08-15 00:21:00,
2013-08-15 03:26:00,92.7,81.5,29.49,SSW,203,6.5,6.9,70,0.00,,,0.00,WUHU216HW,2013-08-15 00:26:00,
2013-08-15 03:31:00,92.7,81.5,29.49,South,180,5.4,6.9,70,0.00,,,0.00,WUHU216HW,2013-08-15 00:31:00,
2013-08-15 03:36:00,92.7,81.5,29.49,SSE,158,5.8,6.7,70,0.00,,,0.00,WUHU216HW,2013-08-15 00:36:00,
2013-08-15 03:41:00,92.7,81.1,29.49,South,180,3.4,7.6,69,0.00,,,0.00,WUHU216HW,2013-08-15 00:41:00,
2013-08-15 03:46:00,92.7,81.1,29.49,SSE,158,6.3,8.5,69,0.00,,,0.00,WUHU216HW,2013-08-15 00:46:00,
2013-08-15 03:51:00,92.7,81.1,29.49,SSE,158,5.1,8.5,69,0.00,,,0.00,WUHU216HW,2013-08-15 00:51:00,
2013-08-15 03:56:00,92.7,80.7,29.49,South,180,7.8,7.8,68,0.00,,,0.00,WUHU216HW,2013-08-15 00:56:00,
2013-08-15 04:01:00,92.5,80.5,29.49,SSW,203,6.3,8.3,68,0.00,,,0.00,WUHU216HW,2013-08-15 01:01:00,
2013-08-15 04:06:00,92.5,80.5,29.49,SSW,203,5.4,8.3,68,0.00,,,0.00,WUHU216HW,2013-08-15 01:06:00,
2013-08-15 04:11:00,92.5,79.9,29.49,SSW,203,3.8,8.3,67,0.00,,,0.00,WUHU216HW,2013-08-15 01:11:00,
2013-08-15 04:16:00,92.5,79.9,29.49,SE,135,4.7,7.6,67,0.00,,,0.00,WUHU216HW,2013-08-15 01:16:00,
2013-08-15 04:21:00,92.3,80.3,29.49,SSW,203,8.5,8.5,68,0.00,,,0.00,WUHU216HW,2013-08-15 01:21:00,
2013-08-15 04:26:00,92.3,79.7,29.49,SSW,203,7.4,8.5,67,0.00,,,0.00,WUHU216HW,2013-08-15 01:26:00,
2013-08-15 04:31:00,92.3,79.7,29.49,SSW,203,5.1,8.5,67,0.00,,,0.00,WUHU216HW,2013-08-15 01:31:00,
2013-08-15 04:36:00,92.3,79.7,29.49,SW,225,4.0,7.4,67,0.00,,,0.00,WUHU216HW,2013-08-15 01:36:00,
2013-08-15 04:41:00,92.3,80.3,29.50,SSW,203,5.1,7.6,68,0.00,,,0.00,WUHU216HW,2013-08-15 01:41:00,
2013-08-15 04:46:00,92.3,80.3,29.50,SSW,203,1.3,7.6,68,0.00,,,0.00,WUHU216HW,2013-08-15 01:46:00,
2013-08-15 04:51:00,92.2,80.6,29.50,SSW,203,4.9,6.7,69,0.00,,,0.00,WUHU216HW,2013-08-15 01:51:00,
2013-08-15 04:56:00,92.2,80.6,29.50,SSW,203,4.3,5.4,69,0.00,,,0.00,WUHU216HW,2013-08-15 01:56:00,
2013-08-15 05:01:00,92.2,80.6,29.50,SSW,203,3.6,5.8,69,0.00,,,0.00,WUHU216HW,2013-08-15 02:01:00,
2013-08-15 05:07:00,92.0,79.9,29.50,SSW,203,3.4,8.1,68,0.00,,,0.00,WUHU216HW,2013-08-15 02:07:00,
2013-08-15 05:12:00,91.8,79.2,29.50,SW,225,6.9,8.1,67,0.00,,,0.00,WUHU216HW,2013-08-15 02:12:00,
2013-08-15 05:17:00,92.0,78.9,29.50,SSW,203,6.0,8.3,66,0.00,,,0.00,WUHU216HW,2013-08-15 02:17:00,
2013-08-15 05:22:00,92.0,78.5,29.50,South,180,4.0,8.3,65,0.00,,,0.00,WUHU216HW,2013-08-15 02:22:00,
2013-08-15 05:27:00,92.2,77.8,29.51,SW,225,5.6,7.6,63,0.00,,,0.00,WUHU216HW,2013-08-15 02:27:00,
2013-08-15 05:32:00,92.3,77.0,29.51,South,180,3.6,9.4,61,0.00,,,0.00,WUHU216HW,2013-08-15 02:32:00,
2013-08-15 05:37:00,92.5,76.7,29.51,SSW,203,5.1,9.4,60,0.00,,,0.00,WUHU216HW,2013-08-15 02:37:00,
2013-08-15 05:42:00,92.5,75.6,29.51,SW,225,1.1,8.1,58,0.00,,,0.00,WUHU216HW,2013-08-15 02:42:00,
2013-08-15 05:47:00,92.5,75.1,29.51,WSW,248,2.5,6.9,57,0.00,,,0.00,WUHU216HW,2013-08-15 02:47:00,
2013-08-15 05:52:00,92.9,74.8,29.51,SSW,203,3.4,6.0,56,0.00,,,0.00,WUHU216HW,2013-08-15 02:52:00,
2013-08-15 05:57:00,92.9,74.8,29.52,SSW,203,2.5,6.0,56,0.00,,,0.00,WUHU216HW,2013-08-15 02:57:00,
2013-08-15 06:02:00,93.1,74.4,29.52,WSW,248,2.2,7.8,55,0.00,,,0.00,WUHU216HW,2013-08-15 03:02:00,
2013-08-15 06:07:00,92.9,73.7,29.52,WSW,248,3.6,8.1,54,0.00,,,0.00,WUHU216HW,2013-08-15 03:07:00,
2013-08-15 06:12:00,92.9,73.7,29.52,WSW,248,6.5,8.1,54,0.00,,,0.00,WUHU216HW,2013-08-15 03:12:00,
2013-08-15 06:17:00,92.9,74.3,29.52,SW,225,5.6,7.6,55,0.00,,,0.00,WUHU216HW,2013-08-15 03:17:00,
2013-08-15 06:22:00,92.9,73.7,29.52,SW,225,4.0,6.5,54,0.00,,,0.00,WUHU216HW,2013-08-15 03:22:00,
2013-08-15 06:27:00,93.1,73.9,29.52,SW,225,3.1,6.7,54,0.00,,,0.00,WUHU216HW,2013-08-15 03:27:00,
2013-08-15 06:32:00,93.2,74.1,29.52,SW,225,3.8,6.7,54,0.00,,,0.00,WUHU216HW,2013-08-15 03:32:00,
2013-08-15 06:37:00,93.2,73.5,29.52,SW,225,7.8,7.8,53,0.00,,,0.00,WUHU216HW,2013-08-15 03:37:00,
2013-08-15 06:42:00,93.2,72.9,29.53,SW,225,5.4,7.8,52,0.00,,,0.00,WUHU216HW,2013-08-15 03:42:00,
2013-08-15 06:47:00,93.6,73.3,29.52,WSW,248,3.4,7.6,52,0.00,,,0.00,WUHU216HW,2013-08-15 03:47:00,
2013-08-15 06:52:00,93.8,73.4,29.53,SW,225,4.0,6.3,52,0.00,,,0.00,WUHU216HW,2013-08-15 03:52:00,
2013-08-15 06:57:00,93.8,72.4,29.53,WSW,248,6.3,7.6,50,0.00,,,0.00,WUHU216HW,2013-08-15 03:57:00,
2013-08-15 07:01:00,94.0,73.1,29.53,SW,225,3.6,7.6,51,0.00,,,0.00,WUHU216HW,2013-08-15 04:01:00,
2013-08-15 07:06:00,94.3,72.9,29.53,SW,225,5.1,7.8,50,0.00,,,0.00,WUHU216HW,2013-08-15 04:06:00,
2013-08-15 07:11:00,94.5,72.5,29.53,West,270,4.0,7.8,49,0.00,,,0.00,WUHU216HW,2013-08-15 04:11:00,
2013-08-15 07:16:00,94.7,72.6,29.54,SW,225,4.0,6.7,49,0.00,,,0.00,WUHU216HW,2013-08-15 04:16:00,
2013-08-15 07:21:00,95.0,72.3,29.54,West,270,4.7,6.9,48,0.00,,,0.00,WUHU216HW,2013-08-15 04:21:00,
2013-08-15 07:26:00,95.0,71.7,29.54,West,270,6.5,8.5,47,0.00,,,0.00,WUHU216HW,2013-08-15 04:26:00,
2013-08-15 07:31:00,95.2,71.8,29.55,SW,225,4.9,8.5,47,0.00,,,0.00,WUHU216HW,2013-08-15 04:31:00,
2013-08-15 07:36:00,95.4,71.9,29.55,West,270,5.8,7.2,47,0.00,,,0.00,WUHU216HW,2013-08-15 04:36:00,
2013-08-15 07:41:00,96.1,71.3,29.55,SW,225,10.1,10.1,45,0.00,,,0.00,WUHU216HW,2013-08-15 04:41:00,
2013-08-15 07:46:00,96.7,71.1,29.55,WNW,293,4.3,10.1,44,0.00,,,0.00,WUHU216HW,2013-08-15 04:46:00,
2013-08-15 07:51:00,97.0,70.7,29.55,SW,225,10.3,10.3,43,0.00,,,0.00,WUHU216HW,2013-08-15 04:51:00,
2013-08-15 07:56:00,97.4,71.1,29.55,WSW,248,8.1,10.3,43,0.00,,,0.00,WUHU216HW,2013-08-15 04:56:00,
2013-08-15 08:01:00,97.7,70.8,29.55,West,270,5.6,10.3,42,0.00,,,0.00,WUHU216HW,2013-08-15 05:01:00,
2013-08-15 08:06:00,97.7,70.8,29.55,SSW,203,7.6,11.4,42,0.00,,,0.00,WUHU216HW,2013-08-15 05:06:00,
2013-08-15 08:11:00,97.9,70.9,29.55,WSW,248,7.8,11.4,42,0.00,,,0.00,WUHU216HW,2013-08-15 05:11:00,
2013-08-15 08:16:00,98.3,71.2,29.55,West,270,4.9,8.7,42,0.00,,,0.00,WUHU216HW,2013-08-15 05:16:00,
2013-08-15 08:21:00,99.0,71.2,29.56,WSW,248,6.3,8.5,41,0.00,,,0.00,WUHU216HW,2013-08-15 05:21:00,
2013-08-15 08:26:00,99.2,71.4,29.56,WSW,248,4.7,8.5,41,0.00,,,0.00,WUHU216HW,2013-08-15 05:26:00,
2013-08-15 08:31:00,99.4,70.8,29.56,SW,225,6.7,9.8,40,0.00,,,0.00,WUHU216HW,2013-08-15 05:31:00,
2013-08-15 08:36:00,99.7,71.2,29.55,WSW,248,8.3,9.8,40,0.00,,,0.00,WUHU216HW,2013-08-15 05:36:00,
2013-08-15 08:41:00,100.1,71.5,29.55,SSW,203,2.0,8.3,40,0.00,,,0.00,WUHU216HW,2013-08-15 05:41:00,
2013-08-15 08:46:00,100.1,70.7,29.55,SSW,203,7.4,7.4,39,0.00,,,0.00,WUHU216HW,2013-08-15 05:46:00,
2013-08-15 08:51:00,100.1,70.7,29.55,WSW,248,2.7,7.8,39,0.00,,,0.00,WUHU216HW,2013-08-15 05:51:00,
2013-08-15 08:56:00,100.4,71.0,29.55,West,270,3.1,7.8,39,0.00,,,0.00,WUHU216HW,2013-08-15 05:56:00,
2013-08-15 09:01:00,100.8,70.5,29.55,SW,225,5.1,8.7,38,0.00,,,0.00,WUHU216HW,2013-08-15 06:01:00,
2013-08-15 09:06:00,100.8,70.5,29.55,West,270,5.6,8.7,38,0.00,,,0.00,WUHU216HW,2013-08-15 06:06:00,
2013-08-15 09:11:00,101.0,71.5,29.55,WSW,248,3.4,7.8,39,0.00,,,0.00,WUHU216HW,2013-08-15 06:11:00,
2013-08-15 09:16:00,101.2,71.7,29.55,West,270,2.0,8.5,39,0.00,,,0.00,WUHU216HW,2013-08-15 06:16:00,
2013-08-15 09:22:00,101.5,71.1,29.55,SSW,203,4.7,8.5,38,0.00,,,0.00,WUHU216HW,2013-08-15 06:22:00,
2013-08-15 09:27:00,102.2,70.9,29.56,WSW,248,4.3,6.7,37,0.00,,,0.00,WUHU216HW,2013-08-15 06:27:00,
2013-08-15 09:32:00,102.6,70.4,29.56,WNW,293,3.4,7.6,36,0.00,,,0.00,WUHU216HW,2013-08-15 06:32:00,
2013-08-15 09:37:00,103.0,69.8,29.55,NW,315,4.0,7.6,35,0.00,,,0.00,WUHU216HW,2013-08-15 06:37:00,
2013-08-15 09:42:00,103.5,71.2,29.55,WSW,248,5.4,7.4,36,0.00,,,0.00,WUHU216HW,2013-08-15 06:42:00,
2013-08-15 09:47:00,103.9,70.7,29.55,West,270,7.4,7.4,35,0.00,,,0.00,WUHU216HW,2013-08-15 06:47:00,
2013-08-15 09:52:00,103.7,70.5,29.55,West,270,5.4,7.4,35,0.00,,,0.00,WUHU216HW,2013-08-15 06:52:00,
2013-08-15 09:57:00,103.9,70.7,29.55,NW,315,3.8,7.2,35,0.00,,,0.00,WUHU216HW,2013-08-15 06:57:00,
2013-08-15 10:02:00,103.9,70.7,29.55,West,270,4.0,7.2,35,0.00,,,0.00,WUHU216HW,2013-08-15 07:02:00,
2013-08-15 10:07:00,104.4,71.1,29.55,WNW,293,2.7,6.3,35,0.00,,,0.00,WUHU216HW,2013-08-15 07:07:00,
2013-08-15 10:12:00,104.4,71.1,29.55,NNW,338,1.8,6.0,35,0.00,,,0.00,WUHU216HW,2013-08-15 07:12:00,
2013-08-15 10:17:00,104.4,71.1,29.55,NE,45,1.1,6.0,35,0.00,,,0.00,WUHU216HW,2013-08-15 07:17:00,
2013-08-15 10:22:00,104.9,73.3,29.55,ENE,68,4.7,4.9,37,0.00,,,0.00,WUHU216HW,2013-08-15 07:22:00,
2013-08-15 10:27:00,105.1,76.1,29.55,ENE,68,4.5,6.3,40,0.00,,,0.00,WUHU216HW,2013-08-15 07:27:00,
2013-08-15 10:32:00,104.8,77.8,29.54,East,90,7.4,8.3,43,0.00,,,0.00,WUHU216HW,2013-08-15 07:32:00,
2013-08-15 10:37:00,104.0,76.4,29.55,ENE,68,5.4,8.3,42,0.00,,,0.00,WUHU216HW,2013-08-15 07:37:00,
2013-08-15 10:42:00,104.2,76.6,29.54,ESE,113,6.3,8.3,42,0.00,,,0.00,WUHU216HW,2013-08-15 07:42:00,
2013-08-15 10:47:00,104.0,77.0,29.54,ENE,68,6.7,9.6,43,0.00,,,0.00,WUHU216HW,2013-08-15 07:47:00,
2013-08-15 10:52:00,103.7,76.1,29.54,ENE,68,8.1,10.3,42,0.00,,,0.00,WUHU216HW,2013-08-15 07:52:00,
2013-08-15 10:57:00,103.7,76.8,29.54,NNE,23,6.3,10.3,43,0.00,,,0.00,WUHU216HW,2013-08-15 07:57:00,
2013-08-15 11:02:00,103.7,77.4,29.54,ENE,68,6.9,8.9,44,0.00,,,0.00,WUHU216HW,2013-08-15 08:02:00,
2013-08-15 11:07:00,103.7,75.4,29.53,ENE,68,6.0,8.9,41,0.00,,,0.00,WUHU216HW,2013-08-15 08:07:00,
2013-08-15 11:12:00,104.2,74.3,29.53,East,90,7.4,8.7,39,0.00,,,0.00,WUHU216HW,2013-08-15 08:12:00,
2013-08-15 11:17:00,103.7,76.1,29.53,ENE,68,4.7,12.1,42,0.00,,,0.00,WUHU216HW,2013-08-15 08:17:00,
2013-08-15 11:22:00,103.7,78.8,29.53,East,90,6.3,12.1,46,0.00,,,0.00,WUHU216HW,2013-08-15 08:22:00,
2013-08-15 11:27:00,103.5,77.2,29.53,SE,135,8.7,9.6,44,0.00,,,0.00,WUHU216HW,2013-08-15 08:27:00,
2013-08-15 11:32:00,103.1,79.6,29.53,ESE,113,8.5,10.1,48,0.00,,,0.00,WUHU216HW,2013-08-15 08:32:00,
2013-08-15 11:37:00,102.6,81.0,29.53,ESE,113,11.9,11.9,51,0.00,,,0.00,WUHU216HW,2013-08-15 08:37:00,
2013-08-15 11:42:00,102.2,81.3,29.53,East,90,10.1,11.9,52,0.00,,,0.00,WUHU216HW,2013-08-15 08:42:00,
2013-08-15 11:47:00,102.1,81.6,29.53,ENE,68,10.1,12.5,53,0.00,,,0.00,WUHU216HW,2013-08-15 08:47:00,
2013-08-15 11:52:00,101.9,81.5,29.52,ENE,68,9.4,12.5,53,0.00,,,0.00,WUHU216HW,2013-08-15 08:52:00,
2013-08-15 11:57:00,101.5,81.7,29.52,ENE,68,10.3,12.3,54,0.00,,,0.00,WUHU216HW,2013-08-15 08:57:00,
2013-08-15 12:02:00,101.3,81.5,29.52,East,90,10.3,12.1,54,0.00,,,0.00,WUHU216HW,2013-08-15 09:02:00,
2013-08-15 12:03:00,101.3,81.5,29.52,ESE,113,7.2,12.1,54,0.00,,,0.00,WUHU216HW,2013-08-15 09:03:00,
2013-08-15 12:08:00,101.3,81.5,29.52,ESE,113,6.5,12.1,54,0.00,,,0.00,WUHU216HW,2013-08-15 09:08:00,
2013-08-15 12:13:00,101.7,80.7,29.52,East,90,6.0,11.2,52,0.00,,,0.00,WUHU216HW,2013-08-15 09:13:00,
2013-08-15 12:18:00,101.5,80.6,29.52,SE,135,3.4,11.4,52,0.00,,,0.00,WUHU216HW,2013-08-15 09:18:00,
2013-08-15 12:23:00,101.7,80.7,29.51,East,90,6.7,11.4,52,0.00,,,0.00,WUHU216HW,2013-08-15 09:23:00,
2013-08-15 12:28:00,102.1,81.1,29.51,East,90,8.1,9.2,52,0.00,,,0.00,WUHU216HW,2013-08-15 09:28:00,
2013-08-15 12:33:00,101.9,80.9,29.51,East,90,9.2,11.6,52,0.00,,,0.00,WUHU216HW,2013-08-15 09:33:00,
2013-08-15 12:38:00,102.2,81.3,29.51,ENE,68,7.4,11.6,52,0.00,,,0.00,WUHU216HW,2013-08-15 09:38:00,
2013-08-15 12:43:00,102.4,80.8,29.51,NE,45,7.6,10.5,51,0.00,,,0.00,WUHU216HW,2013-08-15 09:43:00,
2013-08-15 12:48:00,102.1,81.6,29.51,East,90,7.2,10.5,53,0.00,,,0.00,WUHU216HW,2013-08-15 09:48:00,
2013-08-15 12:53:00,101.7,80.7,29.51,SE,135,5.1,10.5,52,0.00,,,0.00,WUHU216HW,2013-08-15 09:53:00,
2013-08-15 12:58:00,101.9,80.9,29.51,East,90,8.7,10.5,52,0.00,,,0.00,WUHU216HW,2013-08-15 09:58:00,
2013-08-15 13:03:00,101.5,82.3,29.50,East,90,8.1,9.6,55,0.00,,,0.00,WUHU216HW,2013-08-15 10:03:00,
2013-08-15 17:58:00,97.9,84.6,29.48,East,90,2.9,2.9,66,0.00,,,0.00,WUHU216HW,2013-08-15 14:58:00,
2013-08-15 18:03:00,97.9,84.6,29.48,SSE,158,2.5,4.7,66,0.00,,,0.00,WUHU216HW,2013-08-15 15:03:00,
2013-08-15 18:08:00,97.6,83.8,29.49,East,90,4.0,5.4,65,0.00,,,0.00,WUHU216HW,2013-08-15 15:08:00,
2013-08-15 18:13:00,97.7,84.0,29.49,SE,135,2.0,5.4,65,0.00,,,0.00,WUHU216HW,2013-08-15 15:13:00,
2013-08-15 18:18:00,97.6,84.2,29.49,SE,135,3.4,4.9,66,0.00,,,0.00,WUHU216HW,2013-08-15 15:18:00,
2013-08-15 18:23:00,97.4,84.6,29.49,ENE,68,2.9,6.0,67,0.00,,,0.00,WUHU216HW,2013-08-15 15:23:00,
2013-08-15 18:28:00,97.2,84.4,29.49,ESE,113,1.6,6.0,67,0.00,,,0.00,WUHU216HW,2013-08-15 15:28:00,
2013-08-15 18:34:00,96.8,84.1,29.50,ESE,113,2.5,5.8,67,0.00,,,0.00,WUHU216HW,2013-08-15 15:34:00,
2013-08-15 18:39:00,96.8,84.5,29.50,East,90,6.5,6.5,68,0.00,,,0.00,WUHU216HW,2013-08-15 15:39:00,
2013-08-15 18:44:00,96.7,84.3,29.50,ENE,68,2.9,6.5,68,0.00,,,0.00,WUHU216HW,2013-08-15 15:44:00,
2013-08-15 18:49:00,96.5,84.2,29.50,ESE,113,4.0,7.6,68,0.00,,,0.00,WUHU216HW,2013-08-15 15:49:00,
2013-08-15 18:54:00,96.5,84.7,29.50,ESE,113,4.7,8.5,69,0.00,,,0.00,WUHU216HW,2013-08-15 15:54:00,
2013-08-15 18:59:00,96.5,84.7,29.50,East,90,4.9,8.5,69,0.00,,,0.00,WUHU216HW,2013-08-15 15:59:00,
2013-08-15 19:04:00,96.1,84.3,29.50,East,90,4.9,6.7,69,0.00,,,0.00,WUHU216HW,2013-08-15 16:04:00,
2013-08-15 19:09:00,96.1,84.3,29.50,ESE,113,3.4,6.5,69,0.00,,,0.00,WUHU216HW,2013-08-15 16:09:00,
2013-08-15 19:14:00,96.1,84.3,29.51,ENE,68,3.6,6.5,69,0.00,,,0.00,WUHU216HW,2013-08-15 16:14:00,
2013-08-15 19:18:00,96.1,84.3,29.51,ENE,68,4.0,6.5,69,0.00,,,0.00,WUHU216HW,2013-08-15 16:18:00,
2013-08-15 19:24:00,96.1,83.8,29.51,East,90,4.7,6.5,68,0.00,,,0.00,WUHU216HW,2013-08-15 16:24:00,
2013-08-15 19:29:00,95.9,83.6,29.51,SE,135,3.1,6.3,68,0.00,,,0.00,WUHU216HW,2013-08-15 16:29:00,
2013-08-15 19:34:00,96.1,83.8,29.51,ESE,113,3.4,4.9,68,0.00,,,0.00,WUHU216HW,2013-08-15 16:34:00,
2013-08-15 19:39:00,95.9,83.6,29.51,East,90,4.5,7.6,68,0.00,,,0.00,WUHU216HW,2013-08-15 16:39:00,
2013-08-15 19:44:00,95.8,84.0,29.52,East,90,2.9,7.6,69,0.00,,,0.00,WUHU216HW,2013-08-15 16:44:00,
2013-08-15 19:49:00,95.9,83.6,29.52,ESE,113,4.7,5.4,68,0.00,,,0.00,WUHU216HW,2013-08-15 16:49:00,
2013-08-15 19:54:00,95.8,83.4,29.52,ESE,113,2.7,4.7,68,0.00,,,0.00,WUHU216HW,2013-08-15 16:54:00,
2013-08-15 19:59:00,95.8,84.0,29.52,ESE,113,3.8,5.8,69,0.00,,,0.00,WUHU216HW,2013-08-15 16:59:00,
2013-08-15 20:04:00,95.8,84.4,29.52,SE,135,2.7,5.8,70,0.00,,,0.00,WUHU216HW,2013-08-15 17:04:00,
2013-08-15 20:09:00,95.6,84.2,29.52,East,90,4.0,5.4,70,0.00,,,0.00,WUHU216HW,2013-08-15 17:09:00,
2013-08-15 20:14:00,95.4,84.1,29.52,SE,135,2.7,5.1,70,0.00,,,0.00,WUHU216HW,2013-08-15 17:14:00,
2013-08-15 20:19:00,95.4,84.1,29.52,ESE,113,3.4,5.8,70,0.00,,,0.00,WUHU216HW,2013-08-15 17:19:00,
2013-08-15 20:24:00,95.4,84.1,29.53,ESE,113,2.9,5.8,70,0.00,,,0.00,WUHU216HW,2013-08-15 17:24:00,
2013-08-15 20:29:00,95.4,84.5,29.53,East,90,5.1,6.9,71,0.00,,,0.00,WUHU216HW,2013-08-15 17:29:00,
2013-08-15 20:34:00,95.2,84.8,29.53,ESE,113,4.3,6.9,72,0.00,,,0.00,WUHU216HW,2013-08-15 17:34:00,
2013-08-15 20:39:00,95.2,84.8,29.53,ESE,113,4.9,6.7,72,0.00,,,0.00,WUHU216HW,2013-08-15 17:39:00,
2013-08-15 20:44:00,95.2,84.8,29.53,ESE,113,3.1,6.5,72,0.00,,,0.00,WUHU216HW,2013-08-15 17:44:00,
2013-08-15 20:49:00,95.4,85.0,29.53,ESE,113,4.7,6.9,72,0.00,,,0.00,WUHU216HW,2013-08-15 17:49:00,
2013-08-15 20:54:00,95.4,85.0,29.53,ESE,113,3.6,6.9,72,0.00,,,0.00,WUHU216HW,2013-08-15 17:54:00,
2013-08-15 20:59:00,95.2,85.1,29.53,ESE,113,4.5,6.9,73,0.00,,,0.00,WUHU216HW,2013-08-15 17:59:00,
2013-08-15 21:04:00,95.2,85.1,29.52,East,90,4.9,6.9,73,0.00,,,0.00,WUHU216HW,2013-08-15 18:04:00,
2013-08-15 21:09:00,95.2,85.1,29.53,East,90,5.6,6.5,73,0.00,,,0.00,WUHU216HW,2013-08-15 18:09:00,
2013-08-15 21:14:00,95.2,85.1,29.52,ESE,113,2.9,6.3,73,0.00,,,0.00,WUHU216HW,2013-08-15 18:14:00,
2013-08-15 21:20:00,95.2,85.1,29.52,East,90,5.4,5.6,73,0.00,,,0.00,WUHU216HW,2013-08-15 18:20:00,
2013-08-15 21:25:00,95.0,85.0,29.53,East,90,2.2,5.6,73,0.00,,,0.00,WUHU216HW,2013-08-15 18:25:00,
2013-08-15 21:31:00,95.0,85.0,29.53,ESE,113,3.1,4.7,73,0.00,,,0.00,WUHU216HW,2013-08-15 18:31:00,
2013-08-15 21:36:00,95.0,84.6,29.53,SSE,158,3.1,4.3,72,0.00,,,0.00,WUHU216HW,2013-08-15 18:36:00,
2013-08-15 21:41:00,95.0,84.6,29.53,SE,135,2.5,4.3,72,0.00,,,0.00,WUHU216HW,2013-08-15 18:41:00,
2013-08-15 21:46:00,95.0,84.6,29.53,ESE,113,3.6,3.6,72,0.00,,,0.00,WUHU216HW,2013-08-15 18:46:00,
2013-08-15 21:51:00,94.9,84.0,29.52,SE,135,1.8,4.5,71,0.00,,,0.00,WUHU216HW,2013-08-15 18:51:00,
2013-08-15 21:57:00,94.9,84.0,29.52,SE,135,1.8,4.5,71,0.00,,,0.00,WUHU216HW,2013-08-15 18:57:00,
2013-08-15 22:02:00,94.9,83.5,29.52,SE,135,3.1,3.4,70,0.00,,,0.00,WUHU216HW,2013-08-15 19:02:00,
2013-08-15 22:07:00,94.9,84.0,29.53,SSE,158,2.7,3.4,71,0.00,,,0.00,WUHU216HW,2013-08-15 19:07:00,
2013-08-15 22:13:00,94.9,84.4,29.53,SSE,158,1.8,3.1,72,0.00,,,0.00,WUHU216HW,2013-08-15 19:13:00,
2013-08-15 22:18:00,94.9,84.4,29.53,SE,135,3.8,3.8,72,0.00,,,0.00,WUHU216HW,2013-08-15 19:18:00,
2013-08-15 22:23:00,94.7,84.3,29.52,SSE,158,1.8,4.0,72,0.00,,,0.00,WUHU216HW,2013-08-15 19:23:00,
2013-08-15 22:28:00,94.7,84.3,29.52,SSE,158,2.0,4.0,72,0.00,,,0.00,WUHU216HW,2013-08-15 19:28:00,
2013-08-15 22:33:00,94.5,84.1,29.53,SE,135,2.2,3.4,72,0.00,,,0.00,WUHU216HW,2013-08-15 19:33:00,
2013-08-15 22:38:00,94.5,84.1,29.53,SSE,158,1.8,3.4,72,0.00,,,0.00,WUHU216HW,2013-08-15 19:38:00,
2013-08-15 22:44:00,94.5,84.1,29.52,SE,135,1.1,2.5,72,0.00,,,0.00,WUHU216HW,2013-08-15 19:44:00,
2013-08-15 22:49:00,94.5,84.1,29.52,SE,135,1.3,2.2,72,0.00,,,0.00,WUHU216HW,2013-08-15 19:49:00,
2013-08-15 22:54:00,94.3,83.9,29.52,SE,135,0.2,2.0,72,0.00,,,0.00,WUHU216HW,2013-08-15 19:54:00,
2013-08-15 23:00:00,94.3,83.9,29.52,SSE,158,1.3,2.0,72,0.00,,,0.00,WUHU216HW,2013-08-15 20:00:00,
2013-08-15 23:05:00,94.1,84.2,29.52,SSE,158,1.1,1.8,73,0.00,,,0.00,WUHU216HW,2013-08-15 20:05:00,
2013-08-15 23:10:00,94.1,84.2,29.52,SSE,158,0.7,1.6,73,0.00,,,0.00,WUHU216HW,2013-08-15 20:10:00,
2013-08-15 23:15:00,94.1,84.2,29.52,SSE,158,0.0,1.6,73,0.00,,,0.00,WUHU216HW,2013-08-15 20:15:00,
2013-08-15 23:21:00,94.0,83.6,29.52,SSE,158,0.0,1.6,72,0.00,,,0.00,WUHU216HW,2013-08-15 20:21:00,
2013-08-15 23:26:00,94.0,84.0,29.52,SSE,158,0.0,0.9,73,0.00,,,0.00,WUHU216HW,2013-08-15 20:26:00,
2013-08-15 23:31:00,94.0,84.0,29.52,SSE,158,1.1,1.1,73,0.00,,,0.00,WUHU216HW,2013-08-15 20:31:00,
2013-08-15 23:36:00,94.0,84.0,29.52,SE,135,1.6,1.6,73,0.00,,,0.00,WUHU216HW,2013-08-15 20:36:00,
2013-08-15 23:41:00,94.0,84.0,29.52,SE,135,0.9,1.8,73,0.00,,,0.00,WUHU216HW,2013-08-15 20:41:00,
2013-08-15 23:46:00,94.0,84.0,29.52,SE,135,0.2,2.0,73,0.00,,,0.00,WUHU216HW,2013-08-15 20:46:00,
2013-08-15 23:51:00,94.0,84.0,29.51,SE,135,1.1,2.0,73,0.00,,,0.00,WUHU216HW,2013-08-15 20:51:00,
2013-08-15 23:56:00,94.0,83.6,29.51,SE,135,1.8,1.8,72,0.00,,,0.00,WUHU216HW,2013-08-15 20:56:00,